This is the latest recevied weather packets stored in our database for station/object K1TTC. If no packets are shown the sender has not sent any weather packets the latest 10 day(s).
| Time | Temp. | Humidity | Pressure | Rain* | Wind** | Luminosity | Snow |
|---|---|---|---|---|---|---|---|
| 1777561587 | 8.89° C | 86% | 1008.7 hPa | 0.51 mm | - | 77 W/m² | - |
| 1777560986 | 8.89° C | 86% | 1008.9 hPa | 0.25 mm | - | 113 W/m² | - |
| 1777560384 | 8.89° C | 86% | 1009 hPa | 0.51 mm | - | 69 W/m² | - |
| 1777559784 | 8.89° C | 86% | 1009 hPa | 0.51 mm | - | 76 W/m² | - |
| 1777559182 | 8.89° C | 86% | 1009 hPa | 0.51 mm | - | 84 W/m² | - |
| 1777558583 | 8.89° C | 86% | 1009.1 hPa | 0.51 mm | - | 84 W/m² | - |
| 1777557983 | 8.89° C | 86% | 1009.2 hPa | 0.51 mm | - | 127 W/m² | - |
| 1777557380 | 8.33° C | 86% | 1009.3 hPa | 0.51 mm | - | 167 W/m² | - |
| 1777556777 | 8.33° C | 86% | 1009.5 hPa | 0.25 mm | - | 121 W/m² | - |
| 1777556177 | 8.33° C | 86% | 1009.3 hPa | 0.25 mm | - | 100 W/m² | - |
| 1777555577 | 8.33° C | 86% | 1009.6 hPa | 0 mm | - | 65 W/m² | - |
| 1777554977 | 8.33° C | 86% | 1009.4 hPa | 0 mm | - | 72 W/m² | - |
| 1777554378 | 8.33° C | 86% | 1009.2 hPa | 0 mm | - | 125 W/m² | - |
| 1777553778 | 8.33° C | 85% | 1009.3 hPa | 0 mm | - | 100 W/m² | - |
| 1777553177 | 8.33° C | 85% | 1009.4 hPa | 0 mm | - | 139 W/m² | - |
| 1777552576 | 7.78° C | 85% | 1009.6 hPa | 0 mm | - | 105 W/m² | - |
| 1777551977 | 7.78° C | 85% | 1009.7 hPa | 0 mm | - | 109 W/m² | - |
| 1777551377 | 7.78° C | 85% | 1009.8 hPa | 0 mm | - | 121 W/m² | - |
| 1777550778 | 7.78° C | 84% | 1009.9 hPa | 0 mm | - | 62 W/m² | - |
| 1777550170 | 7.78° C | 84% | 1010 hPa | 0 mm | - | 33 W/m² | - |
| 1777549570 | 7.78° C | 84% | 1009.8 hPa | 0 mm | - | 39 W/m² | - |
| 1777548971 | 7.78° C | 84% | 1009.6 hPa | 0 mm | - | 51 W/m² | - |
| 1777548371 | 7.78° C | 84% | 1009.3 hPa | 0 mm | - | 53 W/m² | - |
| 1777547770 | 7.78° C | 84% | 1009.3 hPa | 0 mm | - | 62 W/m² | - |
| 1777547171 | 7.78° C | 83% | 1009.3 hPa | 0 mm | - | 56 W/m² | - |
* Rain latest hour (hover to see other rain measurements)
** Current wind speed in m/s (hover to see current wind gust speed)